{"data":{"norad_id":902,"epoch":"2026-05-25T02:16:07.532832Z","epoch_age_seconds":73666,"freshness":"FRESH","line1":"1 00902U 64063E   26145.09453163  .00000059  00000+0  75632-4 0  9999","line2":"2 00902  90.2373  75.2390 0016801 297.8236  78.4972 13.52898282853142","mean_motion":13.52898282,"eccentricity":0.0016801,"inclination_deg":90.2373,"raan_deg":75.239,"arg_perigee_deg":297.8236,"mean_anomaly_deg":78.4972,"bstar":7.5632e-5,"rev_number":85314,"period_min":106.43815718882,"perigee_km":1049.1146571007,"apogee_km":1074.113709026,"semimajor_km":7439.7511830634,"source":"CELESTRAK","updated_at":"2026-05-25T13:38:25.284051Z"}}